Precipitable_Water
0.46 0.46 0.46 0.44 0.45 0.46 0.47 0.50 0.55 0.60 0.67 0.75 0.88 0.98 1.10 1.21 1.28 1.37 1.57 1.70 1.70 1.53 1.46 1.43 1.40 1.29 1.25 1.20 1.10 1.07 0.98 0.93
0.48 0.48 0.47 0.45 0.45 0.44 0.43 0.44 0.48 0.51 0.55 0.57 0.64 0.76 0.91 1.02 1.10 1.16 1.29 1.45 1.61 1.70 1.57 1.46 1.48 1.41 1.35 1.25 1.21 1.12 1.06 1.08
0.48 0.51 0.47 0.46 0.46 0.46 0.45 0.44 0.46 0.48 0.52 0.59 0.65 0.69 0.80 0.89 1.00 1.06 1.13 1.25 1.37 1.52 1.60 1.63 1.61 1.48 1.40 1.36 1.24 1.13 1.15 1.19
0.37 0.38 0.38 0.39 0.39 0.43 0.46 0.48 0.48 0.49 0.50 0.52 0.55 0.62 0.69 0.70 0.80 0.90 1.02 1.13 1.21 1.31 1.45 1.48 1.54 1.63 1.59 1.53 1.44 1.28 1.15 1.24
0.33 0.32 0.33 0.34 0.36 0.38 0.39 0.47 0.50 0.52 0.53 0.52 0.49 0.48 0.46 0.53 0.67 0.76 0.87 0.98 1.04 1.14 1.24 1.33 1.41 1.43 1.46 1.58 1.65 1.53 1.40 1.22
0.32 0.32 0.33 0.35 0.37 0.37 0.38 0.39 0.40 0.47 0.52 0.53 0.52 0.51 0.53 0.54 0.56 0.59 0.71 0.84 0.95 1.02 1.09 1.15 1.23 1.28 1.39 1.37 1.45 1.53 1.61 1.44
0.33 0.34 0.35 0.33 0.34 0.33 0.33 0.34 0.35 0.37 0.39 0.46 0.51 0.52 0.51 0.53 0.55 0.56 0.58 0.63 0.78 0.90 0.99 1.06 1.12 1.15 1.22 1.29 1.35 1.34 1.39 1.40
0.30 0.29 0.29 0.30 0.29 0.30 0.28 0.31 0.31 0.35 0.33 0.34 0.35 0.40 0.48 0.50 0.52 0.54 0.58 0.62 0.63 0.66 0.76 0.87 0.96 1.01 1.11 1.19 1.27 1.26 1.23 1.22
0.28 0.29 0.28 0.27 0.28 0.30 0.28 0.29 0.30 0.32 0.31 0.30 0.30 0.31 0.31 0.37 0.44 0.46 0.47 0.51 0.57 0.63 0.69 0.75 0.82 0.82 0.84 0.93 1.03 1.10 1.16 1.24
0.26 0.29 0.30 0.28 0.28 0.28 0.26 0.28 0.31 0.30 0.29 0.28 0.27 0.28 0.29 0.30 0.34 0.38 0.39 0.42 0.43 0.46 0.50 0.56 0.61 0.70 0.72 0.73 0.76 0.74 0.82 0.92
0.27 0.29 0.30 0.31 0.31 0.29 0.28 0.31 0.29 0.29 0.28 0.27 0.27 0.28 0.30 0.30 0.31 0.30 0.35 0.37 0.36 0.38 0.40 0.42 0.45 0.48 0.47 0.50 0.52 0.56 0.59 0.65
0.27 0.28 0.31 0.32 0.30 0.26 0.27 0.29 0.28 0.26 0.26 0.27 0.27 0.28 0.29 0.30 0.29 0.30 0.31 0.32 0.33 0.33 0.34 0.34 0.36 0.39 0.40 0.40 0.40 0.39 0.37 0.39
0.27 0.27 0.29 0.28 0.23 0.24 0.26 0.27 0.26 0.26 0.26 0.26 0.26 0.27 0.26 0.26 0.25 0.26 0.27 0.26 0.27 0.27 0.28 0.28 0.28 0.30 0.30 0.29 0.28 0.30 0.30 0.30
0.25 0.25 0.22 0.22 0.22 0.24 0.25 0.26 0.25 0.26 0.26 0.25 0.25 0.25 0.24 0.24 0.24 0.25 0.24 0.23 0.23 0.24 0.24 0.24 0.25 0.27 0.27 0.27 0.27 0.27 0.27 0.28
0.22 0.21 0.20 0.21 0.23 0.24 0.25 0.25 0.26 0.26 0.25 0.23 0.22 0.23 0.23 0.24 0.24 0.23 0.23 0.23 0.22 0.22 0.23 0.24 0.25 0.25 0.25 0.25 0.25 0.25 0.25 0.27
0.20 0.21 0.20 0.21 0.23 0.24 0.25 0.25 0.26 0.25 0.23 0.22 0.22 0.24 0.24 0.24 0.23 0.23 0.23 0.23 0.23 0.23 0.23 0.24 0.24 0.24 0.23 0.23 0.24 0.24 0.24 0.25
0.22 0.23 0.21 0.20 0.22 0.22 0.24 0.25 0.25 0.25 0.22 0.21 0.22 0.23 0.23 0.23 0.22 0.22 0.21 0.22 0.22 0.22 0.22 0.22 0.22 0.23 0.24 0.24 0.25 0.24 0.24 0.24
0.23 0.25 0.21 0.20 0.22 0.23 0.23 0.25 0.26 0.24 0.22 0.22 0.21 0.21 0.20 0.21 0.21 0.20 0.20 0.20 0.21 0.21 0.22 0.22 0.22 0.24 0.24 0.25 0.25 0.24 0.24 0.25
0.25 0.27 0.23 0.21 0.23 0.24 0.26 0.26 0.26 0.24 0.21 0.20 0.21 0.21 0.20 0.20 0.19 0.18 0.19 0.20 0.20 0.20 0.21 0.22 0.22 0.24 0.24 0.24 0.25 0.26 0.26 0.27
Wind_Speed
16 16 17 19 20 22 23 24 25 26 27 27 28 28 27 27 27 28 31 32 34 35 35 35 35 35 35 34 34 34 33 33
16 16 17 18 19 21 22 24 25 26 27 28 29 30 31 31 30 29 31 32 33 36 37 37 37 37 37 37 37 37 36 35
15 16 17 18 19 21 22 23 24 25 26 27 28 30 32 33 34 33 31 32 33 33 35 37 38 39 39 39 39 39 39 38
12 13 15 16 18 20 21 22 23 23 24 26 27 28 29 31 33 35 36 34 33 34 35 35 37 38 40 41 42 43 42 42
10 12 13 15 17 18 19 20 21 22 23 24 25 27 29 31 33 34 35 36 36 36 36 36 35 36 38 38 40 44 47 46
9 10 11 13 15 17 19 20 20 21 21 22 23 24 27 29 31 32 34 35 36 37 37 38 38 37 38 38 40 40 36 43
7 9 10 12 14 16 18 18 19 20 20 21 23 24 25 27 29 31 33 34 35 35 37 37 37 39 38 39 40 39 39 39
7 8 10 12 14 16 17 18 18 19 20 21 21 22 23 24 26 29 31 33 34 35 35 35 37 38 38 39 39 42 44 45
6 7 8 10 12 14 16 16 17 17 18 18 19 19 20 21 23 25 27 29 32 34 35 35 35 36 37 37 40 40 42 42
5 6 6 8 10 13 14 15 15 16 17 17 17 18 19 20 21 21 22 23 26 29 32 34 35 35 37 39 39 40 40 41
5 5 5 7 9 11 13 13 15 16 16 16 16 17 18 19 20 21 21 20 21 23 25 28 31 34 35 37 39 41 42 43
5 5 5 6 8 9 11 12 14 15 16 16 16 17 18 19 19 20 21 21 19 18 20 22 25 28 31 34 36 39 41 43
5 5 5 5 7 8 9 11 13 14 15 16 16 17 18 19 19 21 21 21 21 20 19 19 20 23 26 29 31 34 36 39
4 4 4 5 6 7 8 10 12 13 15 16 17 17 18 19 20 21 22 22 22 22 22 22 22 22 24 27 30 32 34 36
4 3 4 4 5 6 8 10 12 13 15 16 16 17 18 19 20 21 22 23 23 24 24 24 25 25 25 27 29 31 34 36
6 4 4 5 5 6 8 9 11 13 15 16 17 18 19 20 21 22 23 24 25 26 27 27 28 28 28 30 31 32 34 36
8 6 6 5 6 6 8 9 11 13 15 16 17 18 19 21 22 24 25 26 27 28 29 30 31 31 33 34 34 35 36 36
9 8 7 6 6 7 8 9 11 13 15 16 18 19 20 22 24 25 27 28 29 31 32 33 34 35 36 37 37 37 38 39
9 8 7 7 6 7 8 9 12 14 15 16 18 20 21 23 25 27 28 30 32 33 34 36 36 37 38 39 39 40 40 41
Wind_Direction
281 286 287 288 288 287 287 286 284 281 277 274 271 269 269 270 268 266 264 261 258 257 257 257 257 257 257 258 258 259 260 261
281 287 290 292 295 295 294 292 289 284 281 277 272 270 268 268 269 270 267 265 263 259 257 257 257 258 258 258 258 259 260 262
281 286 293 298 299 300 300 297 295 290 284 281 274 272 269 268 268 268 269 267 264 262 260 258 258 258 258 258 258 260 260 261
283 290 296 301 304 306 306 305 302 297 291 285 280 275 272 272 270 267 267 267 266 263 263 261 261 260 259 259 259 259 260 260
286 293 300 306 308 309 312 310 310 307 302 295 290 283 279 276 273 270 267 266 265 265 263 262 263 262 262 262 262 261 261 259
286 298 304 309 314 315 316 314 314 314 312 307 301 294 286 280 277 274 270 268 266 264 265 263 262 263 263 263 262 265 269 261
286 300 309 316 319 321 320 318 316 316 317 316 311 304 299 291 284 278 273 269 267 267 264 264 264 262 264 263 264 265 267 270
283 305 314 318 323 325 325 323 321 319 318 318 317 314 309 303 297 287 277 272 269 268 267 265 263 265 265 264 268 266 267 269
284 306 323 332 336 337 338 334 331 328 327 325 324 324 321 318 313 303 289 277 271 270 268 267 267 266 266 266 266 269 270 269
285 310 327 343 353 356 359 359 354 348 344 341 341 340 337 335 331 326 310 293 283 276 272 269 269 269 269 268 268 270 272 272
280 301 319 336 347 354 359 2 5 3 360 358 355 352 351 349 347 344 338 321 304 291 282 277 273 271 272 271 271 272 273 273
277 291 304 324 339 348 355 358 358 359 2 2 0 358 357 355 354 355 355 350 338 318 306 294 284 278 277 276 276 276 276 275
272 289 300 313 330 340 347 351 354 356 355 355 354 353 354 354 354 354 352 351 351 347 338 323 309 296 289 286 283 282 282 281
265 292 303 309 321 333 340 346 349 350 351 351 351 351 350 351 350 350 349 349 348 346 342 338 330 319 306 298 292 290 288 287
247 284 301 309 317 324 333 340 343 345 345 346 346 347 347 347 347 347 346 345 344 342 339 336 333 328 322 316 306 299 295 292
239 263 285 301 312 322 328 335 340 342 344 344 344 343 344 343 343 342 342 342 340 339 337 335 332 328 324 320 315 310 305 298
237 252 268 283 300 315 323 331 338 342 343 344 344 343 342 342 341 341 340 339 338 336 335 333 331 328 325 322 318 313 309 305
236 247 258 271 287 307 318 328 335 339 342 343 344 344 343 342 341 340 339 338 336 335 333 332 330 327 325 322 319 315 311 308
236 245 255 263 281 301 317 326 332 335 337 339 340 340 340 339 339 339 338 337 336 335 333 332 330 328 326 324 320 317 314 310